Weather History for Lufkin, TX

Change the Weather History Date:

Saturday, October 15, 2011

  Actual Average Record
Temperature  
Mean Temperature 70 °F 68 °F  
Max Temperature 90 °F 80 °F 95 °F (1935)
Min Temperature 50 °F 56 °F 34 °F (1907)
Degree Days  
Heating Degree Days 0 2  
Month to date heating degree days 0 16  
Since 1 July heating degree days 0 20  
Cooling Degree Days 5 5  
Month to date cooling degree days 96 93  
Year to date cooling degree days 3285 2490  
Growing Degree Days 20 (Base 50)    
Moisture  
Dew Point 49 °F    
Average Humidity 55    
Maximum Humidity 89    
Minimum Humidity 21    
Precipitation  
Precipitation 0.00 in 0.15 in 1.71 in (1957)
Month to date precipitation 0.14 2.05  
Year to date precipitation 21.82 36.72  
Snow  
Snow 0.00 in - - ()
Month to date snowfall 0.0  
Since 1 July snowfall 0.0  
Since 1 September snowfall 0.0  
Snow Depth 0.00 in    
Sea Level Pressure  
Sea Level Pressure 30.04 in    
Wind  
Wind Speed 2 mph (East)    
Max Wind Speed 13 mph    
Max Gust Speed 15 mph    
Visibility 10 miles    
Events      
T = Trace of Precipitation, MM = Missing Value Source: NWS Daily Summary

Daily Weather History Graph

Daily Weather History Graph

Search for Another Location

Airport:

Trip Planner

Search our weather history database for the weather conditions in past years. The results will help you decide how hot, cold, wet, or windy it might be!

Date:

Astronomy

Oct. 15, 2011 Rise Set
Actual Time 7:21 AM CDT 6:47 PM CDT
Civil Twilight 6:57 AM CDT 7:11 PM CDT
Nautical Twilight 6:29 AM CDT 7:40 PM CDT
Astronomical Twilight 6:01 AM CDT 8:08 PM CDT
Moon 9:00 PM CDT (10/15) 10:31 AM CDT (10/15)
Length of Visible Light 12h 14m
Length of Day
11h 25m
Waning Gibbous, 89% of the Moon is Illuminated
Oct 15
Waning Gibbous
Oct 19
Last Quarter
Oct 26
New
Nov 2
First Quarter
Nov 10
Full

Hourly Weather History & Observations

Time (CDT) Temp. Dew Point Humidity Pressure Visibility Wind Dir Wind Speed Gust Speed Precip Events Conditions
12:53 AM 61.0 °F 46.9 °F 60% 30.00 in 10.0 mi Calm Calm - N/A   Clear
1:53 AM 57.0 °F 48.0 °F 72% 30.00 in 10.0 mi Calm Calm - N/A   Clear
2:53 AM 55.9 °F 46.9 °F 72% 30.01 in 10.0 mi Calm Calm - N/A   Clear
3:53 AM 55.0 °F 48.9 °F 80% 30.02 in 10.0 mi Calm Calm - N/A   Clear
4:53 AM 53.1 °F 48.9 °F 86% 30.02 in 10.0 mi Calm Calm - N/A   Clear
5:53 AM 51.1 °F 46.9 °F 86% 30.03 in 10.0 mi ENE 3.5 mph - N/A   Clear
6:53 AM 51.1 °F 48.0 °F 89% 30.04 in 10.0 mi Calm Calm - N/A   Clear
7:53 AM 51.8 °F 48.2 °F 88% 30.06 in 10.0 mi Calm Calm - N/A   Clear
8:53 AM 63.0 °F 54.0 °F 72% 30.09 in 10.0 mi Calm Calm - N/A   Clear
9:53 AM 72.0 °F 57.0 °F 59% 30.10 in 10.0 mi Calm Calm - N/A   Clear
10:53 AM 77.0 °F 53.1 °F 43% 30.10 in 10.0 mi Variable 3.5 mph - N/A   Clear
11:53 AM 82.4 °F 51.8 °F 35% 30.10 in 10.0 mi Calm Calm - N/A   Clear
12:53 PM 86.0 °F 48.9 °F 28% 30.07 in 10.0 mi Calm Calm - N/A   Clear
1:53 PM 87.1 °F 46.0 °F 24% 30.04 in 10.0 mi ENE 6.9 mph - N/A   Clear
2:53 PM 88.0 °F 46.0 °F 23% 30.02 in 10.0 mi North 5.8 mph - N/A   Clear
3:53 PM 89.1 °F 46.9 °F 23% 30.01 in 10.0 mi ESE 4.6 mph - N/A   Clear
4:53 PM 89.6 °F 44.6 °F 21% 30.01 in 10.0 mi East 6.9 mph - N/A   Clear
5:53 PM 87.1 °F 46.0 °F 24% 30.00 in 10.0 mi ESE 4.6 mph - N/A   Clear
6:53 PM 80.1 °F 46.9 °F 31% 30.01 in 10.0 mi Calm Calm - N/A   Clear
7:53 PM 72.0 °F 50.0 °F 46% 30.02 in 10.0 mi Calm Calm - N/A   Clear
8:53 PM 69.1 °F 50.0 °F 51% 30.03 in 10.0 mi Calm Calm - N/A   Clear
9:53 PM 64.9 °F 51.1 °F 61% 30.04 in 10.0 mi Calm Calm - N/A   Clear
10:53 PM 63.0 °F 50.0 °F 63% 30.07 in 10.0 mi SE 4.6 mph - N/A   Clear
11:53 PM 63.0 °F 52.0 °F 67% 30.08 in 10.0 mi SE 4.6 mph - N/A   Clear